Weather History for Crossville, TN

Change the Weather History Date:

Tuesday, November 19, 2013

  Actual Average Record
Temperature  
Mean Temperature 40 °F -  
Max Temperature 48 °F 56 °F 71 °F (1985)
Min Temperature 33 °F 37 °F 17 °F (2008)
Degree Days  
Heating Degree Days 24    
Moisture  
Dew Point 25 °F    
Average Humidity 55    
Maximum Humidity 75    
Minimum Humidity 34    
Precipitation  
Precipitation 0.00 in - - ()
Sea Level Pressure  
Sea Level Pressure 30.20 in    
Wind  
Wind Speed 7 mph (NNE)    
Max Wind Speed 12 mph    
Max Gust Speed 21 mph    
Visibility 10 miles    
Events Snow    
T = Trace of Precipitation, MM = Missing Value Source: NWS Daily Summary

Daily Weather History Graph

Daily Weather History Graph

Search for Another Location

Airport:

Trip Planner

Search our weather history database for the weather conditions in past years. The results will help you decide how hot, cold, wet, or windy it might be!

Date:

Astronomy

Nov. 19, 2013 Rise Set
Actual Time 6:20 AM CST 4:30 PM CST
Civil Twilight 5:53 AM CST 4:57 PM CST
Nautical Twilight 5:22 AM CST 5:28 PM CST
Astronomical Twilight 4:51 AM CST 5:59 PM CST
Moon 6:21 PM CST (11/19) 7:59 AM CST (11/19)
Length of Visible Light 11h 04m
Length of Day
10h 09m
Waning Gibbous, 96% of the Moon is Illuminated
Nov 19
Waning Gibbous
Nov 25
Last Quarter
Dec 2
New
Dec 9
First Quarter
Dec 17
Full

Hourly Weather History & Observations

Time (CST) Temp. Windchill Dew Point Humidity Pressure Visibility Wind Dir Wind Speed Gust Speed Precip Events Conditions
12:53 AM 39.0 °F 34.0 °F 26.1 °F 60% 30.18 in 10.0 mi NNW 6.9 mph - N/A   Clear
1:53 AM 37.0 °F 33.3 °F 26.1 °F 65% 30.18 in 10.0 mi North 4.6 mph - N/A   Clear
2:53 AM 36.0 °F 30.3 °F 26.1 °F 67% 30.18 in 10.0 mi North 6.9 mph - N/A   Clear
3:53 AM 35.1 °F 30.1 °F 25.0 °F 67% 30.18 in 10.0 mi North 5.8 mph - N/A   Clear
4:53 AM 34.0 °F 29.8 °F 25.0 °F 70% 30.19 in 10.0 mi North 4.6 mph - N/A   Clear
5:53 AM 34.0 °F 28.8 °F 25.0 °F 70% 30.21 in 10.0 mi NNE 5.8 mph - N/A   Clear
6:53 AM 33.1 °F 25.5 °F 26.1 °F 75% 30.22 in 9.0 mi NE 9.2 mph - 0.00 in   Clear
7:53 AM 35.1 °F 28.6 °F 26.1 °F 70% 30.23 in 9.0 mi NE 8.1 mph 17.3 mph 0.00 in Snow Light Snow
8:53 AM 37.0 °F 30.4 °F 26.1 °F 65% 30.25 in 10.0 mi NE 9.2 mph - 0.00 in Snow Light Snow
9:53 AM 42.1 °F 37.7 °F 25.0 °F 51% 30.25 in 10.0 mi NNE 6.9 mph - 0.00 in   Clear
10:53 AM 44.1 °F 38.1 °F 21.9 °F 42% 30.23 in 10.0 mi NNE 11.5 mph - N/A   Clear
11:53 AM 46.9 °F - 21.0 °F 36% 30.21 in 10.0 mi NNE 10.4 mph 18.4 mph N/A   Clear
12:53 PM 48.0 °F - 21.0 °F 34% 30.19 in 10.0 mi NNE 9.2 mph 20.7 mph N/A   Clear
1:53 PM 48.9 °F - 23.0 °F 36% 30.18 in 10.0 mi NNE 11.5 mph 16.1 mph N/A   Clear
2:53 PM 46.9 °F - 24.1 °F 41% 30.17 in 10.0 mi North 8.1 mph - N/A   Clear
3:53 PM 45.0 °F 40.6 °F 23.0 °F 42% 30.19 in 10.0 mi North 8.1 mph - N/A   Clear
4:53 PM 44.1 °F 39.0 °F 23.0 °F 43% 30.18 in 10.0 mi North 9.2 mph - N/A   Clear
5:53 PM 45.0 °F 41.2 °F 23.0 °F 42% 30.22 in 10.0 mi NE 6.9 mph - N/A   Clear
6:53 PM 42.1 °F 36.6 °F 25.0 °F 51% 30.23 in 10.0 mi NNE 9.2 mph - N/A   Clear
7:53 PM 42.1 °F 36.6 °F 26.1 °F 53% 30.21 in 10.0 mi NE 9.2 mph - N/A   Clear
8:53 PM 41.0 °F 35.8 °F 26.1 °F 55% 30.21 in 10.0 mi NE 8.1 mph - N/A   Clear
9:53 PM 39.9 °F 35.8 °F 26.1 °F 58% 30.20 in 10.0 mi ENE 5.8 mph - N/A   Clear
10:53 PM 39.0 °F 34.8 °F 26.1 °F 60% 30.19 in 10.0 mi NE 5.8 mph - N/A   Clear
11:53 PM 37.0 °F 33.3 °F 26.1 °F 65% 30.19 in 10.0 mi North 4.6 mph - 0.00 in   Clear